Regional Weather Roundup
Issued by NWS Cleveland, OH

Home | Current Version | Previous Version | Text Only | Print | Product List | Glossary Off
Versions: 1 2 3 4 5 6 7 8 9 10 11 12 13 14 15 16 17 18 19 20 21 22 23 24 25 26 27 28 29 30 31 32 33 34 35 36 37 38 39 40 41 42 43 44 45 46 47 48 49 50

000
ASUS41 KCLE 071100
RWRCLE
OHIO REGIONAL WEATHER ROUNDUP
NATIONAL WEATHER SERVICE WILMINGTON, OH
600 AM EST SUN FEB 07 2016

NOTE: "FAIR" INDICATES FEW OR NO CLOUDS BELOW 12,000 FEET WITH NO
SIGNIFICANT WEATHER AND/OR OBSTRUCTIONS TO VISIBILITY.

OHZ001>008-015>018-024>027-034-035-043-044-071200-
   NORTHWEST OHIO

CITY           SKY/WX    TMP DP  RH WIND       PRES   REMARKS
DEFIANCE       FAIR      33  25  72 S8        30.04F WCI  26
FINDLAY        FAIR      33  25  72 S13       30.04F WCI  24
TOLEDO EXPRESS MOCLDY    32  24  72 SW7       30.03F WCI  26
TOLEDO EXEC    MOCLDY    34  25  69 S9        30.04F WCI  27
LIMA           FAIR      34  24  67 SW9       30.05F WCI  27
$$

OHZ009>014-019>023-028>033-038-089-071200-
   NORTHEAST OHIO

CITY           SKY/WX    TMP DP  RH WIND       PRES   REMARKS
CLE-HOPKINS    FAIR      28  20  71 S8        30.10F WCI  20
CLE-LAKEFRONT  FAIR      33  21  61 SE12      30.07F WCI  24
CUY CO. ARPT   NOT AVBL
LORAIN-ELYRIA  FAIR      29  21  72 S8        30.08F WCI  21
ASHTABULA      FAIR      27  19  72 S5        30.11F WCI  22
AKRON-CANTON   FAIR      25  17  72 S6        30.09F WCI  18
WOOSTER        NOT AVBL
MANSFIELD      FAIR      29  22  75 S8        30.07F WCI  21
YOUNGSTOWN     FAIR      27  17  66 S3        30.09F
$$

OHZ042-051>053-060>062-070>072-077>081-071200-
  SOUTHWEST OHIO

CITY           SKY/WX    TMP DP  RH WIND       PRES   REMARKS
CINC-COVINGTON FAIR      32  23  69 SW7       30.12F WCI  26
CINC-LUNKEN    FAIR      24  23  96 CALM      30.15F
HAMILTON       FAIR      23  22  96 CALM      30.13F
DAYTON         NOT AVBL
WRIGHT-PAT AFB FAIR      27  22  81 SE3       30.09F
DAYTON GENERAL FAIR      31  22  69 S3        30.10F
WILMINGTON     FAIR      30  23  75 S6        30.11F WCI  24
$$

OHZ036-037-039>041-045>050-054>059-063>069-073>076-082>088-071200-
  CENTRAL AND SOUTHEAST OHIO

CITY           SKY/WX    TMP DP  RH WIND       PRES   REMARKS
COLUMBUS       FAIR      26  19  74 SE3       30.11F
OSU AIRPORT    FAIR      26  22  84 CALM      30.10F
BOLTON FIELD   NOT AVBL
RICKENBACK AFB NOT AVBL
NEWARK         FAIR      22  18  85 CALM      30.11F
MARION         FAIR      29  21  72 S8        30.08F WCI  21
LANCASTER      FAIR      23  19  85 CALM      30.12F
ZANESVILLE     FAIR      23  17  78 CALM      30.11F
NEW PHILLY     FAIR      22  18  85 SE6       30.12F WCI  14
$$



USA.gov is the U.S. government's official web portal to all federal, state and local government web resources and services.